Weather History for Dublin, Ireland

Change the Weather History Date:

Friday, August 31, 2012

  Actual Average Record
Temperature  
Mean Temperature 52 °F -  
Max Temperature 61 °F 62 °F 71 °F (2006)
Min Temperature 44 °F 49 °F 35 °F (2010)
Degree Days  
Heating Degree Days 12    
Growing Degree Days 2 (Base 50)    
Moisture  
Dew Point 49 °F    
Average Humidity 86    
Maximum Humidity 100    
Minimum Humidity 72    
Precipitation  
Precipitation 0.02 in 0.09 in - ()
Sea Level Pressure  
Sea Level Pressure 30.38 in    
Wind  
Wind Speed 10 mph ()    
Max Wind Speed 21 mph    
Max Gust Speed -    
Visibility 6.4 miles    
Events Rain    
Averages and records for this station are not official NWS values.
T = Trace of Precipitation, MM = Missing Value Source: Averaged Metar Reports

Daily Weather History Graph

Daily Weather History Graph

Search for Another Location

Airport:

Trip Planner

Search our weather history database for the weather conditions in past years. The results will help you decide how hot, cold, wet, or windy it might be!

Date:

Astronomy

Aug. 31, 2012 Rise Set
Actual Time 6:33 AM IST 8:16 PM IST
Civil Twilight 5:56 AM IST 8:52 PM IST
Nautical Twilight 5:10 AM IST 9:38 PM IST
Astronomical Twilight 4:19 AM IST 10:29 PM IST
Moon 7:43 PM IST 6:30 AM IST
Length of Visible Light 14h 56m
Length of Day
13h 43m
Full, 100% of the Moon is Illuminated
Aug 31
Full
Aug 31
Full
Sep 8
Last Quarter
Sep 16
New
Sep 22
First Quarter

Hourly Weather History & Observations

Time (IST) Temp. Windchill Dew Point Humidity Pressure Visibility Wind Dir Wind Speed Gust Speed Precip Events Conditions
12:00 AM 46.4 °F 42.4 °F 42.8 °F 87% 30.42 in 6.2 mi West 8.1 mph - N/A   Mostly Cloudy
12:30 AM 46.4 °F 42.4 °F 42.8 °F 87% 30.42 in 6.2 mi West 8.1 mph - N/A   Mostly Cloudy
1:00 AM 45 °F - 43 °F 88% 30.44 in 25 mi West 8.9 mph - -   Partly Cloudy
1:00 AM 46.4 °F 41.9 °F 42.8 °F 87% 30.42 in 6.2 mi West 9.2 mph - N/A   Mostly Cloudy
1:30 AM 46.4 °F 41.5 °F 42.8 °F 87% 30.42 in 6.2 mi WNW 10.4 mph - N/A   Mostly Cloudy
2:00 AM 46.4 °F 42.4 °F 42.8 °F 87% 30.42 in 6.2 mi West 8.1 mph - N/A   Mostly Cloudy
2:30 AM 46.4 °F 42.4 °F 42.8 °F 87% 30.42 in 6.2 mi West 8.1 mph - N/A   Mostly Cloudy
3:00 AM 46.4 °F 41.9 °F 42.8 °F 87% 30.42 in 6.2 mi West 9.2 mph - N/A   Mostly Cloudy
3:30 AM 46.4 °F 42.4 °F 42.8 °F 87% 30.42 in 6.2 mi West 8.1 mph - N/A   Mostly Cloudy
4:00 AM 46.4 °F 41.9 °F 44.6 °F 93% 30.42 in 6.2 mi West 9.2 mph - N/A   Mostly Cloudy
4:30 AM 46.4 °F 42.4 °F 44.6 °F 93% 30.42 in 6.2 mi West 8.1 mph - N/A   Mostly Cloudy
5:00 AM 48.2 °F - 44.6 °F 87% 30.42 in 6.2 mi West 6.9 mph - N/A   Mostly Cloudy
5:30 AM 48.2 °F - 44.6 °F 87% 30.42 in 6.2 mi WSW 6.9 mph - N/A   Mostly Cloudy
6:00 AM 48.2 °F - 44.6 °F 87% 30.42 in 6.2 mi WSW 8.1 mph - N/A   Mostly Cloudy
6:30 AM 48.2 °F - 44.6 °F 87% 30.42 in 6.2 mi WSW 8.1 mph - N/A   Mostly Cloudy
7:00 AM 49 °F - 46 °F 83% 30.44 in 25 mi WSW 6.7 mph - -   Scattered Clouds
7:00 AM 50.0 °F - 46.4 °F 87% 30.42 in 6.2 mi WSW 6.9 mph - N/A   Mostly Cloudy
7:30 AM 50.0 °F - 44.6 °F 82% 30.42 in - WSW 6.9 mph - N/A   Clear
8:00 AM 51.8 °F - 46.4 °F 82% 30.42 in 6.2 mi West 9.2 mph - N/A   Mostly Cloudy
8:30 AM 51.8 °F - 46.4 °F 82% 30.42 in 6.2 mi WSW 9.2 mph - N/A   Mostly Cloudy
9:00 AM 53.6 °F - 46.4 °F 77% 30.42 in 6.2 mi WSW 10.4 mph - N/A   Mostly Cloudy
9:30 AM 53.6 °F - 46.4 °F 77% 30.42 in 6.2 mi SW 9.2 mph - N/A   Mostly Cloudy
10:00 AM 55.4 °F - 46.4 °F 72% 30.42 in 6.2 mi SW 10.4 mph - N/A   Mostly Cloudy
10:30 AM 57.2 °F - 48.2 °F 72% 30.39 in 6.2 mi SW 11.5 mph - N/A Rain Light Rain
11:00 AM 55.4 °F - 48.2 °F 77% 30.39 in 6.2 mi WSW 11.5 mph - N/A   Mostly Cloudy
11:30 AM 55.4 °F - 48.2 °F 77% 30.39 in 6.2 mi WSW 12.7 mph - N/A   Mostly Cloudy
12:00 PM 55.4 °F - 50.0 °F 82% 30.39 in 6.2 mi WSW 15.0 mph - N/A   Light Drizzle
12:30 PM 53.6 °F - 51.8 °F 94% 30.39 in 3.7 mi SW 10.4 mph - N/A   Light Drizzle
1:00 PM 53 °F - 51 °F 92% 30.40 in 12 mi SW 13.4 mph - - Rain Light Drizzle
1:00 PM 53.6 °F - 51.8 °F 94% 30.39 in 6.2 mi SW 12.7 mph - N/A   Light Drizzle
1:30 PM 53.6 °F - 51.8 °F 94% 30.39 in 4.3 mi SW 12.7 mph - N/A   Light Drizzle
2:00 PM 53.6 °F - 51.8 °F 94% 30.39 in 2.5 mi WSW 13.8 mph - N/A   Light Drizzle
2:30 PM 53.6 °F - 53.6 °F 100% 30.36 in 6.2 mi WSW 15.0 mph - N/A   Light Drizzle
3:00 PM 55.4 °F - 53.6 °F 94% 30.36 in 6.2 mi WSW 18.4 mph - N/A   Mostly Cloudy
3:30 PM 57.2 °F - 53.6 °F 88% 30.36 in 6.2 mi WSW 18.4 mph - N/A   Mostly Cloudy
4:00 PM 57.2 °F - 55.4 °F 94% 30.36 in 6.2 mi WSW 13.8 mph - N/A   Light Drizzle
4:30 PM 57.2 °F - 55.4 °F 94% 30.33 in 6.2 mi WSW 15.0 mph - N/A   Mostly Cloudy
5:00 PM 59.0 °F - 57.2 °F 94% 30.33 in 6.2 mi WSW 16.1 mph - N/A   Mostly Cloudy
5:30 PM 60.8 °F - 55.4 °F 82% 30.33 in 6.2 mi West 20.7 mph - N/A   Mostly Cloudy
6:00 PM 60.8 °F - 55.4 °F 82% 30.33 in 6.2 mi West 18.4 mph - N/A   Mostly Cloudy
6:30 PM 60.8 °F - 55.4 °F 82% 30.33 in 6.2 mi West 16.1 mph - N/A   Mostly Cloudy
7:00 PM 61 °F - 56 °F 78% 30.35 in 16 mi West 15.7 mph - -   Partly Cloudy
7:00 PM 60.8 °F - 55.4 °F 82% 30.33 in 6.2 mi West 16.1 mph - N/A   Mostly Cloudy
7:30 PM 60.8 °F - 55.4 °F 82% 30.33 in 6.2 mi West 15.0 mph - N/A   Mostly Cloudy
8:00 PM 60.8 °F - 53.6 °F 77% 30.33 in 6.2 mi West 16.1 mph - N/A   Mostly Cloudy
8:30 PM 60.8 °F - 53.6 °F 77% 30.33 in 6.2 mi West 12.7 mph - N/A   Mostly Cloudy
9:00 PM 59.0 °F - 53.6 °F 82% 30.33 in 6.2 mi West 20.7 mph - N/A   Mostly Cloudy
9:30 PM 59.0 °F - 53.6 °F 82% 30.33 in 6.2 mi West 18.4 mph - N/A   Mostly Cloudy
10:00 PM 59.0 °F - 55.4 °F 88% 30.33 in 6.2 mi West 17.3 mph - N/A   Mostly Cloudy
10:30 PM 59.0 °F - 53.6 °F 82% 30.33 in 6.2 mi West 17.3 mph - N/A   Mostly Cloudy
11:00 PM 57.2 °F - 53.6 °F 88% 30.33 in 6.2 mi West 17.3 mph - N/A   Mostly Cloudy
11:30 PM 57.2 °F - 53.6 °F 88% 30.33 in 6.2 mi West 13.8 mph - N/A   Mostly Cloudy